sat.trackr.live / text

‹ back to catalog

INTELSAT 20 (IS-20)

NORAD 38740 · 2012-043A

PAYLOAD ACTIVE UNKNOWN

§ Identity

Operator
Country
ITSO
Launch date
2012-08-02
Launch site
FRGUI
Launch vehicle
Mass (kg)
RCS (m²)
1.23

Purposes: comms

External: N2YO · Heavens-Above · Gunter

§ Orbital elements

Epoch: 2026-09-09T21:13:24.447936Z

Period
1,436.07 min
Inclination
0.0158°
Eccentricity
0.0001656
Mean motion
1.00273566 rev/d
Perigee alt
35,779.1 km
Apogee alt
35,793.1 km
Semi-major
42,164.2 km
B*
0.0000e+0
RAAN
147.2872°
Arg perigee
14.7971°
Mean anomaly
213.7047°
Rev number
5,159

§ Raw data

INTELSAT 20 (IS-20)1 38740U 12043A   26252.88431074 -.00000046  00000+0  00000+0 0  99932 38740   0.0158 147.2872 0001656  14.7971 213.7047  1.00273566 51590

JSON: /api/v1/satellites/38740 · /tle

For live sub-satellite position, see the globe view (requires WebGL).

§ Visibility from observer

Set your observer location to see the next 7 days of passes ≥ 10°. The values pass through the URL so the page stays shareable.

No JS? Fill the form by hand. The geolocation button needs JavaScript.